Regional Weather Roundup
Issued by NWS Sterling, VA

Home | Current Version | Previous Version | Graphics & Text | Print | Product List | Glossary On
Versions: 1 2 3 4 5 6 7 8 9 10 11 12 13 14 15 16 17 18 19 20 21 22 23 24 25 26 27 28
000
ASUS41 KLWX 300710
RWRLWX

REGIONAL WEATHER ROUNDUP
NATIONAL WEATHER SERVICE BALTIMORE MD/WASHINGTON DC
300 AM EDT SAT APR 30 2016

Note: "FAIR" indicates few or no clouds below 12,000 feet
with no significant weather and/or obstructions to visibility.
 TC=TEMPERATURE CELSIUS

 * =Non NWS site. Station does not report precipitation (e.g. rain,
    snow, etc.), thunder, or fog.

DCZ001-MDZ009-015-VAZ040>042-051-053>054-300800-
WASHINGTON METRO

CITY           SKY/WX    TMP DP  RH WIND       PRES   REMARKS
WASHINGTON NAT CLOUDY    52  50  93 NE8       30.13S
DULLES         CLOUDY    52  49  89 CALM      30.12S
ANDREWS AFB    CLOUDY    50  49  96 NE7       30.11S
FT BELVOIR     CLOUDY    52  49  91 CALM      30.13R
QUANTICO       CLOUDY    54  51  90 E7        30.14R
COLLEGE PARK*  CLOUDY    50  46  87 E3        30.12S
LEESBURG*      CLOUDY    52  52 100 CALM      30.13S FOG
MANASSAS*      CLOUDY    54  52  94 NE5       30.13R
GAITHERSBURG*  CLOUDY    48  46  93 CALM      30.16R

$$

MDZ006>007-011-014-300800-
BALTIMORE METRO

CITY           SKY/WX    TMP DP  RH WIND       PRES   REMARKS
BWI AIRPORT    CLOUDY    50  47  89 NE7       30.12S
MD SCIENCE CTR   N/A     50  46  86 MISG      30.13F
MARTIN STATE   CLOUDY    50  46  87 CALM      30.15S
ANNAPOLIS      CLOUDY    51  48  89 MISG      30.12S
FORT MEADE*    CLOUDY    50  46  87 E5        30.14F

$$

MDZ012-015-019>023-300800-
MARYLAND EASTERN SHORE

CITY           SKY/WX    TMP DP  RH WIND       PRES   REMARKS
OCEAN CITY     CLOUDY    50  48  93 NE12      30.10S FOG
SALISBURY      CLOUDY    49  48  97 N6        30.11F
CAMBRIDGE*       N/A     46  46 100 NE3       30.11F
EASTON*        CLOUDY   N/A N/A N/A NE3       30.15F

$$

MDZ017>025-300800-
SOUTHERN MARYLAND

CITY           SKY/WX    TMP DP  RH WIND       PRES   REMARKS
PATUXENT RIVER CLOUDY    51  48  89 NE7       30.11F
ST INIGOES       N/A    N/A N/A N/A MISG        N/A
LEONARDTOWN*   CLOUDY    50  46  87 CALM      30.12S

$$

MDZ003>005-300800-
NORTH CENTRAL MARYLAND

CITY           SKY/WX    TMP DP  RH WIND       PRES   REMARKS
FREDERICK*     CLOUDY    50  50 100 CALM      30.15S FOG
HAGERSTOWN APT CLOUDY    50  48  93 NW3       30.11S FOG
WESTMINSTER*   CLOUDY    48  46  93 SE3       30.11S FOG

$$

MDZ501>502-300800-
WESTERN MARYLAND

CITY           SKY/WX    TMP DP  RH WIND       PRES   REMARKS
OAKLAND*       CLOUDY    45  43  93 CALM      30.09F FOG
CUMBERLAND*    CLOUDY    52  50  93 CALM      30.14S

$$

VAZ025>031-300800-
SHENANDOAH VALLEY

CITY           SKY/WX    TMP DP  RH WIND       PRES   REMARKS
WINCHESTER*    CLOUDY    52  50  93 CALM      30.11S FOG
FRONT ROYAL*   CLOUDY    50  50 100 CALM      30.11S
LURAY*         CLOUDY    52  52 100 NE3       30.10S FOG
NEW MARKET*    CLOUDY    51  50  97 NE5       30.10S
STAUNTON*      CLOUDY    55  54  97 CALM      30.12R FOG
WAYNESBORO*    CLOUDY    52  51  95 MISG      30.10S

$$

WVZ021-048>050-054>055-300800-
EASTERN WEST VIRGINIA PANHANDLE

CITY           SKY/WX    TMP DP  RH WIND       PRES   REMARKS
MARTINSBURG    CLOUDY    51  48  89 N3        30.11S FOG
PETERSBURG*    CLOUDY    54  51  90 CALM      30.11F

$$

VAZ036>039-050-300800-
CENTRAL FOOTHILLS

CITY           SKY/WX    TMP DP  RH WIND       PRES   REMARKS
CHARLOTTESVILL CLOUDY    54  51  90 CALM      30.10F FOG
CULPEPER*      CLOUDY    53  53  99 CALM      30.13R FOG
ORANGE*        CLOUDY    54  54 100 CALM      30.12S FOG
GORDONSVILLE*  CLOUDY    53  53  99 CALM      30.10S FOG
WARRENTON*     CLOUDY    53  48  83 CALM      30.12R HAZE

$$

VAZ055>057-300800-
NORTH AND CENTRAL PIEDMONT

CITY           SKY/WX    TMP DP  RH WIND       PRES   REMARKS
FREDERICKSBRG* CLOUDY    53  53 100 N3        30.12R
STAFFORD*      CLOUDY    52  49  91 CALM      30.16R

$$

NCZ024-NYZ072-PAZ021-071-VAZ022-071-300800-
OTHER REGIONAL OBSERVATIONS

CITY           SKY/WX    TMP DP  RH WIND       PRES   REMARKS
NEW YORK CITY  CLOUDY    48  38  68 NE7       30.17F
PHILADELPHIA   CLOUDY    47  41  80 NE9       30.15F
PITTSBURGH     CLOUDY    46  40  79 N5        30.12S
ROANOKE        CLOUDY    57  56  96 SE8       30.09S
RICHMOND       CLOUDY    53  52  96 E3        30.10S
RALEIGH        CLOUDY    60  57  89 E7        30.06S

$$

ANZ530>537-300800-
MARINE OBSERVATIONS

STATION/POSITION TIME  TEMP    WIND        PRES
                       AIR SEA DIR/SP/G
                 (UTC) (F)     (DEG/KT/KT) (MB)
THOMAS PT LIGHT  0700   51 57   50/  7/  8 1021.2F
BALT KEY BRIDGE  0600   50      40/  6/  8 1020.1F
COVE POINT       0600   51      80/  7/  9 1020.3S
LEWISETTA        0600   53 59   50/  5/  7 1019.2R
SOLOMONS ISLAND  0600   52 59   50/  4/  5   N/A
PINEY POINT      0600           40/  4/  5   N/A

$$





USA.gov is the U.S. government's official web portal to all federal, state and local government web resources and services.